St. Paul Lake Elmo, MN

6:23 PM CST on December 07, 2019 (GMT -0600)
St. Paul Lake Elmo

Weather History for K21D - September, 2019

Change the Weather History Date:

Saturday, September 28, 2019

  Actual Average (KSTP) Record (KSTP)
Temperature  
Mean Temperature 53 °F -  
Max Temperature 62 °F 64 °F 82 °F (2014)
Min Temperature 44 °F 43 °F 37 °F (2003)
Degree Days  
Heating Degree Days 12    
Growing Degree Days 3 (Base 50)    
Moisture  
Dew Point 43 °F    
Average Humidity 69    
Maximum Humidity 93    
Minimum Humidity 45    
Precipitation  
Precipitation 0.00 in - - ()
Sea Level Pressure  
Sea Level Pressure 30.17 in    
Wind  
Wind Speed 6 mph (NE)    
Max Wind Speed 13 mph    
Max Gust Speed 18 mph    
Visibility 10 miles    
Events      
Averages and records for this station are not official NWS values.
T = Trace of Precipitation, MM = Missing Value Source: NWS Daily Summary

Daily Weather History Graph

Daily Weather History Graph

Search for Another Location

Airport or City:

Astronomy

Sep. 28, 2019 Rise Set
Actual Time 7:05 AM CDT 6:57 PM CDT
Civil Twilight 6:36 AM CDT 7:27 PM CDT
Nautical Twilight 6:02 AM CDT 8:01 PM CDT
Astronomical Twilight 5:27 AM CDT 8:35 PM CDT
Moon 6:38 AM CDT (9/28) 7:25 PM CDT (9/28)
Length of Visible Light 12h 50m
Length of Day
11h 52m
Waning Crescent, 0% of the Moon is Illuminated
Sep 28
Waning Crescent
Sep 28
New
Oct 5
First Quarter
Oct 13
Full
Oct 21
Last Quarter

Hourly Weather History & Observations

Time (CDT) Temp. Windchill Dew Point Humidity Pressure Visibility Wind Dir Wind Speed Gust Speed Precip Events Conditions
12:17 AM 51.8 °F - 46.4 °F 82% 29.98 in 10.0 mi North 6.9 mph - N/A   Scattered Clouds
12:35 AM 51.8 °F - 46.4 °F 82% 29.99 in 10.0 mi North 5.8 mph - N/A   Scattered Clouds
12:55 AM 50.0 °F - 44.6 °F 82% 29.99 in 10.0 mi North 5.8 mph - N/A   Clear
12:56 AM 50.0 °F - 44.6 °F 82% 29.99 in 10.0 mi North 4.6 mph - N/A   Clear
1:15 AM 50.0 °F - 44.6 °F 82% 30.01 in 10.0 mi North 4.6 mph - N/A   Scattered Clouds
1:38 AM 50.0 °F - 44.6 °F 82% 30.03 in 10.0 mi North 3.5 mph - N/A   Mostly Cloudy
1:56 AM 50.0 °F - 44.6 °F 82% 30.03 in 10.0 mi North 5.8 mph - N/A   Scattered Clouds
2:15 AM 50.0 °F - 44.6 °F 82% 30.04 in 10.0 mi North 4.6 mph - N/A   Clear
2:35 AM 50.0 °F - 44.6 °F 82% 30.03 in 10.0 mi North 6.9 mph - N/A   Clear
2:36 AM 50.0 °F - 44.6 °F 82% 30.03 in 10.0 mi North 8.1 mph - N/A   Clear
2:55 AM 50.0 °F - 44.6 °F 82% 30.04 in 10.0 mi North 8.1 mph - N/A   Clear
3:16 AM 50.0 °F - 44.6 °F 82% 30.04 in 10.0 mi North 5.8 mph - N/A   Clear
3:35 AM 50.0 °F - 42.8 °F 76% 30.05 in 10.0 mi North 8.1 mph - N/A   Clear
3:55 AM 50.0 °F - 44.6 °F 82% 30.06 in 10.0 mi North 5.8 mph - N/A   Clear
3:56 AM 50.0 °F - 44.6 °F 82% 30.06 in 10.0 mi NNE 6.9 mph - N/A   Clear
4:15 AM 48.2 °F - 44.6 °F 87% 30.07 in 10.0 mi North 5.8 mph - N/A   Clear
4:19 AM 48.2 °F - 44.6 °F 87% 30.07 in 10.0 mi North 5.8 mph - N/A   Clear
4:38 AM 46.4 °F 44.3 °F 44.6 °F 93% 30.07 in 10.0 mi North 4.6 mph - N/A   Clear
4:55 AM 46.4 °F 45.2 °F 42.8 °F 87% 30.08 in 10.0 mi North 3.5 mph - N/A   Scattered Clouds
5:15 AM 46.4 °F - 42.8 °F 87% 30.08 in 10.0 mi Calm Calm - N/A   Scattered Clouds
5:35 AM 44.6 °F 42.2 °F 42.8 °F 93% 30.09 in 10.0 mi North 4.6 mph - N/A   Clear
5:36 AM 44.6 °F 42.2 °F 42.8 °F 93% 30.09 in 10.0 mi North 4.6 mph - N/A   Clear
5:59 AM 44.6 °F 42.2 °F 42.8 °F 93% 30.11 in 10.0 mi North 4.6 mph - N/A   Scattered Clouds
6:16 AM 44.6 °F - 42.8 °F 93% 30.11 in 10.0 mi Calm Calm - N/A   Clear
6:35 AM 44.6 °F - 42.8 °F 93% 30.13 in 10.0 mi Calm Calm - N/A   Clear
6:55 AM 44.6 °F - 42.8 °F 93% 30.15 in 10.0 mi Calm Calm - N/A   Clear
6:56 AM 44.6 °F - 42.8 °F 93% 30.15 in 10.0 mi Calm Calm - N/A   Scattered Clouds
7:15 AM 44.6 °F 43.1 °F 42.8 °F 93% 30.15 in 10.0 mi North 3.5 mph - N/A   Mostly Cloudy
7:37 AM 44.6 °F 42.2 °F 42.8 °F 93% 30.17 in 10.0 mi North 4.6 mph - N/A   Mostly Cloudy
7:55 AM 44.6 °F 42.2 °F 42.8 °F 93% 30.17 in 10.0 mi North 4.6 mph - N/A   Scattered Clouds
8:15 AM 46.4 °F 43.5 °F 44.6 °F 93% 30.18 in 10.0 mi NNE 5.8 mph - N/A   Clear
8:16 AM 46.4 °F 45.2 °F 44.6 °F 93% 30.18 in 10.0 mi NNE 3.5 mph - N/A   Clear
8:35 AM 48.2 °F - 44.6 °F 87% 30.19 in 10.0 mi NNE 6.9 mph - N/A   Clear
8:36 AM 48.2 °F - 44.6 °F 87% 30.19 in 10.0 mi NNE 5.8 mph - N/A   Clear
8:59 AM 50.0 °F - 44.6 °F 82% 30.20 in 10.0 mi NNE 5.8 mph - N/A   Clear
9:16 AM 50.0 °F - 42.8 °F 76% 30.21 in 10.0 mi NE 8.1 mph - N/A   Clear
9:36 AM 51.8 °F - 42.8 °F 71% 30.21 in 10.0 mi NNE 5.8 mph - N/A   Clear
9:55 AM 51.8 °F - 42.8 °F 71% 30.22 in 10.0 mi NE 5.8 mph - N/A   Clear
10:15 AM 53.6 °F - 42.8 °F 67% 30.23 in 10.0 mi NNE 6.9 mph - N/A   Clear
10:19 AM 53.6 °F - 42.8 °F 67% 30.23 in 10.0 mi NE 6.9 mph - N/A   Clear
10:38 AM 55.4 °F - 42.8 °F 63% 30.23 in 10.0 mi ENE 9.2 mph - N/A   Clear
10:55 AM 55.4 °F - 41.0 °F 58% 30.24 in 10.0 mi NNE 9.2 mph - N/A   Clear
11:15 AM 55.4 °F - 41.0 °F 58% 30.24 in 10.0 mi NNE 11.5 mph - N/A   Clear
11:35 AM 57.2 °F - 41.0 °F 55% 30.24 in 10.0 mi NE 9.2 mph - N/A   Clear
11:36 AM 57.2 °F - 41.0 °F 55% 30.24 in 10.0 mi ENE 10.4 mph - N/A   Clear
11:58 AM 59.0 °F - 41.0 °F 51% 30.24 in 10.0 mi NE 9.2 mph - N/A   Clear
12:16 PM 59.0 °F - 41.0 °F 51% 30.23 in 10.0 mi NE 10.4 mph 16.1 mph N/A   Clear
12:36 PM 59.0 °F - 41.0 °F 51% 30.24 in 10.0 mi NE 4.6 mph 18.4 mph N/A   Clear
12:55 PM 59.0 °F - 41.0 °F 51% 30.24 in 10.0 mi ENE 9.2 mph - N/A   Clear
12:56 PM 59.0 °F - 41.0 °F 51% 30.24 in 10.0 mi NE 8.1 mph - N/A   Clear
1:15 PM 59.0 °F - 41.0 °F 51% 30.23 in 10.0 mi NE 10.4 mph - N/A   Clear
1:19 PM 59.0 °F - 41.0 °F 51% 30.23 in 10.0 mi NE 9.2 mph - N/A   Clear
1:38 PM 59.0 °F - 41.0 °F 51% 30.23 in 10.0 mi NE 5.8 mph - N/A   Clear
1:55 PM 60.8 °F - 41.0 °F 48% 30.23 in 10.0 mi NE 6.9 mph - N/A   Clear
2:15 PM 60.8 °F - 41.0 °F 48% 30.23 in 10.0 mi NE 9.2 mph - N/A   Clear
2:35 PM 60.8 °F - 41.0 °F 48% 30.22 in 10.0 mi ENE 9.2 mph - N/A   Clear
2:36 PM 60.8 °F - 41.0 °F 48% 30.22 in 10.0 mi ENE 9.2 mph - N/A   Clear
2:58 PM 60.8 °F - 41.0 °F 48% 30.22 in 10.0 mi NE 12.7 mph 17.3 mph N/A   Clear
3:16 PM 60.8 °F - 41.0 °F 48% 30.22 in 10.0 mi ENE 6.9 mph 10.4 mph N/A   Clear
3:36 PM 62.6 °F - 42.8 °F 48% 30.22 in 10.0 mi NE 3.5 mph - N/A   Clear
3:55 PM 62.6 °F - 41.0 °F 45% 30.22 in 10.0 mi East 9.2 mph - N/A   Clear
3:56 PM 62.6 °F - 41.0 °F 45% 30.22 in 10.0 mi East 12.7 mph - N/A   Clear
4:15 PM 62.6 °F - 42.8 °F 48% 30.21 in 10.0 mi NE 9.2 mph - N/A   Clear
4:19 PM 60.8 °F - 41.0 °F 48% 30.21 in 10.0 mi NE 10.4 mph - N/A   Clear
4:38 PM 59.0 °F - 41.0 °F 51% 30.21 in 10.0 mi NE 11.5 mph 17.3 mph N/A   Clear
4:56 PM 59.0 °F - 41.0 °F 51% 30.21 in 10.0 mi NE 4.6 mph - N/A   Clear
5:15 PM 59.0 °F - 41.0 °F 51% 30.21 in 10.0 mi NE 5.8 mph - N/A   Clear
5:16 PM 59.0 °F - 41.0 °F 51% 30.21 in 10.0 mi NE 8.1 mph - N/A   Clear
5:36 PM 59.0 °F - 42.8 °F 55% 30.21 in 10.0 mi NE 10.4 mph - N/A   Clear
5:58 PM 59.0 °F - 42.8 °F 55% 30.22 in 10.0 mi ENE 9.2 mph - N/A   Clear
6:17 PM 55.4 °F - 42.8 °F 63% 30.22 in 10.0 mi ENE 3.5 mph - N/A   Clear
6:36 PM 55.4 °F - 42.8 °F 63% 30.22 in 10.0 mi Calm Calm - N/A   Clear
6:56 PM 55.4 °F - 42.8 °F 63% 30.24 in 10.0 mi Calm Calm - N/A   Clear
7:15 PM 55.4 °F - 42.8 °F 63% 30.24 in 10.0 mi Calm Calm - N/A   Clear
7:19 PM 55.4 °F - 42.8 °F 63% 30.24 in 10.0 mi Calm Calm - N/A   Clear
7:38 PM 55.4 °F - 42.8 °F 63% 30.24 in 10.0 mi Calm Calm - N/A   Clear
7:55 PM 55.4 °F - 42.8 °F 63% 30.23 in 10.0 mi Calm Calm - N/A   Clear
8:16 PM 55.4 °F - 42.8 °F 63% 30.23 in 10.0 mi ENE 4.6 mph - N/A   Clear
8:36 PM 53.6 °F - 42.8 °F 67% 30.23 in 10.0 mi ENE 3.5 mph - N/A   Clear
8:58 PM 55.4 °F - 42.8 °F 63% 30.23 in 10.0 mi NE 10.4 mph - N/A   Mostly Cloudy
9:36 PM 53.6 °F - 42.8 °F 67% 30.24 in 10.0 mi ENE 9.2 mph - N/A   Scattered Clouds
9:55 PM 53.6 °F - 42.8 °F 67% 30.24 in 10.0 mi ENE 10.4 mph - N/A   Clear
9:56 PM 53.6 °F - 42.8 °F 67% 30.24 in 10.0 mi ENE 10.4 mph - N/A   Clear
10:15 PM 53.6 °F - 42.8 °F 67% 30.24 in 10.0 mi ENE 10.4 mph 17.3 mph N/A   Clear
10:38 PM 51.8 °F - 41.0 °F 67% 30.24 in 10.0 mi ENE 10.4 mph 16.1 mph N/A   Clear
10:55 PM 51.8 °F - 41.0 °F 67% 30.23 in 10.0 mi ENE 12.7 mph 18.4 mph N/A   Clear
11:15 PM 51.8 °F - 41.0 °F 67% 30.22 in 10.0 mi ENE 11.5 mph 17.3 mph N/A   Scattered Clouds
11:16 PM 51.8 °F - 41.0 °F 67% 30.22 in 10.0 mi ENE 11.5 mph 17.3 mph N/A   Scattered Clouds
11:35 PM 51.8 °F - 39.2 °F 62% 30.22 in 10.0 mi ENE 12.7 mph 17.3 mph N/A   Clear
11:36 PM 51.8 °F - 39.2 °F 62% 30.22 in 10.0 mi ENE 10.4 mph 17.3 mph N/A   Clear
11:58 PM 51.8 °F - 39.2 °F 62% 30.23 in 10.0 mi ENE 8.1 mph - N/A   Clear